Other Surface Observations
Issued by NWS Charleston, SC

Home | Current Version | Previous Version | Text Only | Print | Product List | Glossary On
Versions: 1 2 3 4 5 6 7 8 9 10 11 12 13 14 15 16 17 18 19 20 21 22 23 24 25 26 27 28 29 30 31 32 33 34 35 36 37 38 39 40 41 42 43 44 45 46 47 48 49 50
928
SXUS52 KCHS 230426
OSOCHS

MARINE OBSERVATIONS
NATIONAL WEATHER SERVICE CHARLESTON SC
1100 PM EST WED FEB 22 2017

...DOWNTOWN CHARLESTON AND HARBOR...

CITY           SKY/WX    TMP DP  RH WIND       PRES   REMARKS
WATERFRONT PRK   N/A     64  61  90 NE7       29.87F

...LAKE MOULTRIE...

CITY           SKY/WX    TMP DP  RH WIND       PRES   REMARKS
PINOPOLIS        N/A     61  57  88 VRB3      29.80F

...LAKE AND SUPPLEMENTAL COASTAL OBSERVATIONS...

STATION/POSITION TIME  TEMP    WIND        PRES    WAVE   SWELL
                       AIR SEA DIR/SP/G            HT/PER HT/PER/DIR
                 (UTC) (F)     (DEG/KT/KT) (MB)    (FT/S) (FT/S/D)
FORT PULASKI     0400   63 61   60/ 12/ 14 1010.4
SAPELO ISLAND    0400   64      60/  8     1009.0
WINYAH BAY       0345   62      60/  6     1012.0F
LAKE MURRAY      0420   63     100/  5/  6 1011.9F
ACE BASIN NERRS  0330   63      20/  1     1011.0S


...C-MAN AND BUOY OBSERVATIONS...

STATION/POSITION TIME  TEMP    WIND        PRES    WAVE   SWELL
                       AIR SEA DIR/SP/G            HT/PER HT/PER/DIR
                 (UTC) (F)     (DEG/KT/KT) (MB)    (FT/S) (FT/S/D)
BUOY 41004       0350   70 70  110/ 16/ 19 1010.6F   6/ 7   2/100/13
BUOY 41008       0350   64 62   80/  8/ 10 1009.0F   6/ 8   5/120/ 8
FOLLY BEACH CMAN 0400   62      40/ 10/ 12 1011.7F
CAPERS NS BUOY   0408   61 59   50/ 10/ 12 1011.3F
FRIPP NS BUOY    0408   63 61   60/ 12/ 14 1010.3F
5E ST. MARYS GA  0400      64                N/A     6/ 8


STATION/POSITION TIME  TEMP    WIND        PRES    WAVE   SWELL
                       AIR SEA DIR/SP/G            HT/PER HT/PER/DIR
                 (UTC) (F)     (DEG/KT/KT) (MB)    (FT/S) (FT/S/D)
FRYING PAN BUOY  0410   69 69  130/ 14/ 17 1012.5
BUOY 41025       0350   68 74  160/  8/ 12 1014.7F   3/10   3/ 80/10
CAPE LOOKOUT NC  0400   65     150/ 10/ 12 1013.7F
BUOY 41002       0350   67 70  110/ 19/ 21 1013.9F   5/ 9   3/ 40/ 9
BUOY 41010       NOT AVBL
ST AUGUSTINE FL  0400   66 67  100/ 17/ 20 1007.4F

$$




USA.gov is the U.S. government's official web portal to all federal, state and local government web resources and services.